Visibility
14.9 15.0 15.0 15.0 15.0 15.0 15.0 15.0 15.0 15.0 15.0 15.0 15.0 15.0 15.0 15.0 15.0 15.0 15.0 15.0 15.0 15.0 15.0 15.0 15.0 15.0 15.0 15.0 14.6 13.2 8.4 9.8 10.3 0.7 0.8 4.4 1.5 0.2 9.2 6.9 13.4 15.0 6.5
11.1 10.5 0.2 1.9 2.3 14.1 12.7 15.0 15.0 15.0 15.0 15.0 15.0 15.0 15.0 15.0 15.0 15.0 15.0 15.0 15.0 15.0 15.0 15.0 15.0 15.0 15.0 15.0 15.0 15.0 15.0 15.0 15.0 0.7 1.8 3.1 1.7 1.3 11.0 14.8 10.3 15.0 15.0
12.9 5.9 0.1 0.1 0.2 0.1 0.2 15.0 15.0 15.0 15.0 15.0 15.0 15.0 15.0 15.0 15.0 15.0 15.0 15.0 15.0 15.0 15.0 15.0 15.0 15.0 15.0 15.0 15.0 15.0 15.0 15.0 15.0 9.7 0.4 4.1 0.4 1.9 2.4 3.5 12.5 4.7 12.1
0.3 0.1 0.1 0.1 0.2 4.6 11.4 8.9 9.3 10.4 9.5 10.9 15.0 12.1 15.0 15.0 15.0 15.0 15.0 15.0 15.0 15.0 15.0 15.0 15.0 15.0 15.0 15.0 15.0 12.6 14.9 15.0 14.1 15.0 12.2 0.7 0.4 0.3 3.4 0.3 0.1 15.0 0.2
0.1 0.1 0.1 0.1 11.2 9.6 10.7 6.7 5.4 5.7 7.2 7.8 13.5 15.0 15.0 15.0 15.0 15.0 15.0 15.0 15.0 15.0 15.0 15.0 15.0 15.0 15.0 15.0 13.8 5.8 13.0 15.0 11.0 15.0 3.0 3.8 0.1 0.1 0.1 8.0 0.6 1.2 0.1
0.1 0.1 9.7 15.0 13.2 13.6 7.3 6.3 6.1 10.6 15.0 15.0 13.7 15.0 15.0 15.0 15.0 15.0 15.0 15.0 15.0 15.0 15.0 15.0 15.0 15.0 15.0 11.8 6.4 15.0 15.0 15.0 15.0 10.8 4.2 2.3 0.3 1.7 0.1 2.2 8.2 2.7 0.2
0.1 7.3 13.0 15.0 15.0 15.0 6.9 11.3 9.7 15.0 15.0 15.0 15.0 15.0 15.0 15.0 14.3 8.0 9.6 14.9 15.0 13.1 14.5 15.0 15.0 15.0 15.0 15.0 11.5 10.7 5.3 9.5 14.6 9.3 12.7 1.8 0.3 0.0 1.1 0.1 0.1 0.2 0.1
10.3 10.5 15.0 15.0 8.4 5.4 11.1 12.8 13.6 15.0 15.0 14.5 13.2 15.0 15.0 15.0 15.0 9.7 9.0 10.1 8.9 15.0 15.0 15.0 15.0 15.0 15.0 10.7 5.5 9.5 12.6 15.0 15.0 6.6 2.4 0.3 0.1 0.0 0.1 0.1 0.1 0.1 1.0
0.1 0.2 15.0 15.0 0.7 9.7 7.9 8.1 14.3 15.0 11.7 15.0 10.3 13.7 14.8 9.7 9.8 10.3 7.6 9.3 7.7 10.6 15.0 15.0 13.9 9.9 6.7 9.6 4.4 15.0 0.5 0.3 4.7 1.4 0.1 0.0 0.1 0.1 3.4 7.7 2.0 1.3 1.1
0.3 0.2 8.4 6.7 8.1 3.0 15.0 7.3 10.4 15.0 15.0 15.0 14.7 7.5 8.9 14.7 6.1 8.0 10.6 15.0 7.3 7.0 5.8 11.0 5.4 5.4 10.3 3.5 8.8 0.2 0.0 0.0 0.0 0.1 0.4 4.4 6.1 7.9 10.5 13.0 10.6 3.1 15.0
14.2 11.2 10.1 12.3 15.0 15.0 15.0 15.0 15.0 15.0 15.0 15.0 12.1 9.7 7.1 4.8 3.6 3.5 6.5 5.0 1.2 0.2 0.1 0.2 4.1 6.6 3.2 0.2 2.0 3.9 0.1 0.7 10.9 2.2 1.3 1.8 8.9 15.0 15.0 15.0 15.0 15.0 15.0
15.0 15.0 15.0 15.0 15.0 15.0 15.0 15.0 15.0 15.0 15.0 15.0 15.0 4.7 1.8 3.4 4.0 6.4 5.1 5.8 7.6 0.3 0.1 0.2 0.2 0.1 0.1 6.5 9.7 13.3 15.0 15.0 15.0 15.0 15.0 15.0 15.0 15.0 15.0 15.0 15.0 15.0 15.0
15.0 15.0 15.0 15.0 15.0 15.0 15.0 15.0 15.0 15.0 15.0 15.0 15.0 4.4 4.8 15.0 14.9 15.0 15.0 15.0 15.0 15.0 15.0 15.0 15.0 15.0 15.0 15.0 15.0 15.0 15.0 15.0 15.0 15.0 15.0 15.0 15.0 15.0 15.0 15.0 15.0 15.0 15.0
15.0 15.0 15.0 15.0 15.0 15.0 15.0 15.0 15.0 15.0 15.0 15.0 15.0 15.0 15.0 15.0 15.0 15.0 15.0 15.0 15.0 15.0 15.0 15.0 15.0 15.0 15.0 15.0 15.0 15.0 15.0 15.0 15.0 15.0 15.0 15.0 15.0 15.0 15.0 15.0 15.0 15.0 15.0
15.0 15.0 15.0 15.0 15.0 15.0 15.0 15.0 15.0 15.0 15.0 15.0 15.0 15.0 15.0 15.0 15.0 15.0 15.0 15.0 15.0 15.0 15.0 15.0 15.0 15.0 15.0 15.0 15.0 15.0 15.0 15.0 15.0 15.0 15.0 15.0 15.0 15.0 15.0 15.0 15.0 15.0 15.0
15.0 15.0 15.0 15.0 15.0 15.0 15.0 15.0 15.0 15.0 15.0 15.0 15.0 15.0 15.0 15.0 15.0 15.0 15.0 15.0 15.0 15.0 15.0 15.0 15.0 15.0 15.0 15.0 15.0 15.0 15.0 15.0 15.0 15.0 15.0 15.0 15.0 15.0 15.0 15.0 15.0 15.0 15.0
15.0 15.0 15.0 15.0 15.0 15.0 15.0 15.0 15.0 15.0 15.0 15.0 15.0 15.0 15.0 15.0 15.0 15.0 15.0 15.0 15.0 15.0 15.0 15.0 15.0 15.0 15.0 15.0 15.0 15.0 15.0 15.0 15.0 15.0 15.0 15.0 15.0 15.0 15.0 15.0 15.0 15.0 15.0
15.0 15.0 15.0 15.0 15.0 15.0 15.0 15.0 15.0 15.0 15.0 15.0 15.0 15.0 15.0 15.0 15.0 15.0 15.0 15.0 15.0 15.0 15.0 15.0 15.0 15.0 15.0 15.0 15.0 15.0 15.0 15.0 15.0 15.0 15.0 15.0 15.0 15.0 15.0 15.0 15.0 15.0 15.0
15.0 15.0 15.0 15.0 15.0 15.0 15.0 15.0 15.0 15.0 15.0 15.0 15.0 15.0 15.0 15.0 15.0 15.0 15.0 15.0 15.0 15.0 15.0 15.0 15.0 15.0 15.0 15.0 15.0 15.0 15.0 15.0 15.0 15.0 15.0 15.0 15.0 15.0 15.0 15.0 15.0 15.0 15.0
15.0 15.0 15.0 15.0 15.0 15.0 15.0 15.0 15.0 15.0 15.0 15.0 15.0 15.0 15.0 15.0 15.0 15.0 15.0 15.0 15.0 15.0 15.0 15.0 15.0 15.0 15.0 15.0 15.0 15.0 15.0 15.0 15.0 15.0 15.0 15.0 15.0 15.0 15.0 15.0 15.0 15.0 15.0
15.0 15.0 15.0 15.0 15.0 15.0 15.0 15.0 15.0 15.0 15.0 15.0 15.0 15.0 15.0 15.0 15.0 15.0 15.0 15.0 15.0 15.0 15.0 15.0 15.0 15.0 15.0 15.0 15.0 15.0 15.0 15.0 15.0 15.0 15.0 15.0 15.0 15.0 15.0 15.0 15.0 15.0 15.0
15.0 15.0 15.0 15.0 15.0 15.0 15.0 15.0 15.0 15.0 15.0 15.0 15.0 15.0 15.0 15.0 15.0 15.0 15.0 15.0 15.0 15.0 15.0 15.0 15.0 15.0 15.0 15.0 15.0 15.0 15.0 15.0 15.0 15.0 15.0 15.0 15.0 15.0 15.0 15.0 15.0 15.0 15.0
15.0 15.0 15.0 15.0 15.0 15.0 15.0 15.0 15.0 15.0 15.0 15.0 15.0 15.0 15.0 15.0 15.0 15.0 15.0 15.0 15.0 15.0 15.0 15.0 15.0 15.0 15.0 15.0 15.0 15.0 15.0 15.0 15.0 15.0 15.0 15.0 15.0 15.0 15.0 15.0 15.0 15.0 15.0
15.0 15.0 15.0 15.0 15.0 15.0 15.0 15.0 15.0 15.0 15.0 15.0 15.0 15.0 15.0 15.0 15.0 15.0 15.0 15.0 15.0 15.0 15.0 15.0 15.0 15.0 15.0 15.0 15.0 15.0 15.0 15.0 15.0 15.0 15.0 15.0 15.0 15.0 15.0 15.0 15.0 15.0 15.0
15.0 15.0 15.0 15.0 15.0 15.0 15.0 15.0 15.0 15.0 15.0 15.0 15.0 15.0 15.0 15.0 15.0 15.0 15.0 15.0 15.0 15.0 15.0 15.0 15.0 15.0 15.0 15.0 15.0 15.0 15.0 15.0 15.0 15.0 15.0 15.0 15.0 15.0 15.0 15.0 15.0 15.0 15.0
15.0 15.0 15.0 15.0 15.0 15.0 15.0 15.0 15.0 15.0 15.0 15.0 15.0 15.0 15.0 15.0 15.0 15.0 15.0 15.0 15.0 15.0 15.0 15.0 15.0 15.0 15.0 15.0 15.0 15.0 15.0 15.0 15.0 15.0 15.0 15.0 15.0 15.0 15.0 15.0 15.0 15.0 15.0